Wetbulb
51.05 51.11 51.05 51.15 51.15 51.37 51.68 51.89 51.89 52.03 52.35 52.91 53.42 53.92 54.35 54.43 54.06 54.45 51.59 55.99 58.10 60.51 55.10 55.77 52.67 52.97 53.65 53.21 55.31 55.23 48.60 47.04 49.21 51.10 52.19 54.68 54.59 60.51 61.95 62.76 63.52 64.41 64.78 67.45 68.84
50.72 50.77 50.83 50.77 50.71 50.94 51.25 51.52 51.41 51.86 52.30 52.76 53.30 53.71 53.83 54.12 52.76 51.74 57.71 60.83 59.82 59.74 51.62 52.71 52.11 52.58 49.99 50.75 52.29 50.84 47.81 47.96 52.16 53.79 53.19 54.11 55.35 60.63 60.09 60.44 61.86 62.97 66.00 67.91 68.29
50.29 50.29 50.42 50.56 50.69 50.76 50.93 51.16 51.47 52.29 52.67 53.02 53.42 53.73 53.98 53.89 51.00 50.47 60.28 60.33 60.40 59.69 52.60 53.85 52.77 51.23 48.37 50.23 50.31 50.38 46.97 50.61 51.40 54.04 55.12 54.53 55.09 58.37 59.70 57.68 61.85 61.39 64.34 66.05 66.36
49.79 49.77 49.90 50.36 50.61 50.63 50.73 51.22 51.70 52.27 52.85 53.00 53.11 53.64 53.67 53.14 43.74 54.71 59.98 60.79 60.20 56.09 52.42 51.40 51.22 48.93 47.37 46.74 49.99 47.24 50.19 50.50 51.68 53.56 53.91 53.36 55.78 53.62 56.56 59.72 63.55 64.28 66.34 65.95 65.20
49.01 49.33 49.50 50.23 50.59 50.40 50.59 51.08 51.49 51.81 52.23 52.65 53.03 53.17 52.90 48.68 48.80 56.95 59.82 60.00 57.28 53.40 51.33 49.85 49.03 48.74 46.50 47.85 48.95 47.48 48.91 50.43 51.71 52.11 53.67 54.35 54.10 53.86 55.28 58.55 61.90 63.25 65.76 65.48 65.40
48.77 48.89 49.09 49.61 50.10 50.29 50.67 51.60 51.73 51.54 51.62 52.66 52.99 52.92 51.05 42.77 53.40 52.56 53.83 55.87 54.57 52.74 52.22 50.50 49.23 50.13 48.33 47.85 47.46 49.34 49.07 49.54 50.79 51.04 52.50 51.71 53.02 54.80 55.86 59.11 59.64 63.02 63.97 65.24 65.37
48.65 49.01 49.16 49.42 49.94 50.28 50.64 51.46 51.65 51.93 53.18 53.76 53.62 53.42 50.11 48.03 53.45 53.77 52.65 54.58 54.85 54.27 50.73 51.95 52.20 49.88 49.52 47.02 49.60 48.49 46.25 48.06 48.78 50.20 49.97 52.31 49.86 52.14 56.15 56.81 57.24 61.13 64.24 64.26 64.93
48.63 49.45 49.57 49.77 50.21 50.62 50.97 51.04 51.42 52.64 52.54 53.01 53.65 53.44 46.86 54.32 55.26 53.55 53.45 53.01 54.91 54.65 52.84 53.72 52.85 49.78 48.93 49.98 47.23 45.43 46.01 42.89 47.72 48.99 49.96 50.56 45.91 51.41 56.46 56.53 57.25 59.41 62.97 64.24 64.03
49.21 49.52 49.58 49.82 49.89 50.18 50.80 50.57 51.56 52.75 51.82 52.97 53.31 50.95 46.79 51.91 49.27 51.37 51.90 49.98 51.81 53.54 54.03 53.01 51.43 47.92 47.69 44.61 43.40 44.57 40.81 42.40 44.45 48.93 48.33 48.30 46.48 51.06 54.88 56.60 56.33 58.39 61.68 63.11 63.80
49.36 49.33 49.46 49.53 49.73 49.84 50.29 50.08 52.46 52.26 52.40 54.57 53.37 47.22 50.67 46.67 50.67 52.34 54.42 50.48 49.58 50.10 49.94 49.54 48.00 45.38 45.06 43.64 38.41 41.02 41.14 43.31 43.41 47.07 47.48 46.33 46.46 49.80 52.53 54.88 56.96 58.10 60.69 62.94 63.50
48.73 49.04 49.36 49.53 49.27 49.49 50.51 50.32 45.23 47.05 46.21 41.86 42.52 42.65 43.97 47.55 51.31 50.78 52.53 49.42 48.75 48.09 43.78 47.19 42.53 40.80 43.22 45.27 45.06 44.92 43.86 42.76 45.36 47.74 46.12 45.53 46.05 48.21 51.14 53.09 56.19 57.41 60.86 61.80 63.46
48.87 48.91 48.83 49.17 48.71 49.38 51.70 44.12 43.73 44.83 38.57 45.51 46.01 46.68 49.15 49.66 43.58 47.00 52.55 46.25 44.88 42.61 45.39 44.13 40.41 44.53 45.85 45.79 44.66 44.15 42.89 43.36 45.45 46.89 45.75 45.27 45.13 47.71 50.36 51.36 54.71 57.64 60.02 62.13 62.72
48.56 48.55 47.82 48.40 47.98 49.85 49.26 45.26 49.54 49.93 39.95 43.61 48.00 47.27 47.93 49.06 44.76 44.67 48.78 49.20 42.81 42.26 43.38 41.56 43.52 45.85 44.76 44.04 43.16 43.50 42.50 42.84 42.67 44.87 45.87 44.77 43.41 45.83 48.86 51.51 53.10 57.59 59.75 62.89 63.15
48.23 48.07 47.68 47.11 47.58 48.64 46.32 48.87 50.40 49.93 37.34 39.33 42.71 45.19 47.94 48.31 43.70 50.05 48.89 48.59 45.03 40.70 43.27 43.30 46.08 44.18 43.62 42.74 44.14 41.05 44.87 43.81 43.08 42.08 38.91 44.36 37.28 44.08 46.94 49.60 51.26 55.66 58.55 61.20 63.69
47.93 47.73 47.06 47.45 47.45 45.99 47.27 50.37 50.75 47.48 25.49 39.29 40.93 48.89 46.99 44.87 45.08 46.47 50.62 48.16 43.94 42.15 43.40 41.73 43.21 43.00 41.75 42.94 44.77 42.41 45.71 43.65 43.36 42.27 41.56 41.79 39.01 42.44 46.36 45.51 50.66 53.39 55.70 59.87 63.59
47.41 46.62 45.73 48.44 49.75 49.47 50.56 51.39 50.04 35.82 24.11 35.41 40.32 39.42 37.32 41.08 42.94 45.71 45.99 49.18 48.70 43.27 43.67 43.39 47.24 45.47 44.05 44.89 45.02 45.69 43.85 43.44 43.34 41.66 36.10 40.27 40.19 40.85 43.78 45.59 47.66 50.31 54.49 59.33 62.23
46.77 46.84 47.07 49.66 44.14 50.54 51.38 49.25 36.03 25.08 36.43 32.70 35.05 38.55 34.86 32.73 38.13 41.19 41.41 39.51 36.30 34.89 37.52 41.23 42.59 44.53 45.42 42.43 44.58 43.75 41.62 35.46 34.01 34.60 34.30 41.79 40.09 42.10 46.53 47.91 49.09 50.92 52.31 58.79 62.63
46.26 46.68 49.57 48.75 50.88 51.83 50.97 41.30 24.40 30.00 30.79 36.18 35.89 36.79 31.49 32.40 34.14 36.59 37.25 34.76 36.34 34.44 34.45 36.40 34.63 41.63 43.99 42.57 41.27 41.52 41.30 36.54 30.26 32.27 35.71 41.66 37.85 41.92 48.36 50.17 53.21 55.89 58.37 60.05 61.24
46.46 49.83 47.90 49.58 51.90 51.56 44.44 30.10 26.66 29.81 33.24 32.52 34.79 31.28 30.89 31.94 32.38 33.04 31.37 30.25 32.74 32.81 25.26 32.54 37.30 43.69 43.79 44.08 44.19 41.09 39.38 43.77 39.89 40.55 37.10 39.50 42.19 45.94 48.38 48.80 50.89 51.65 52.88 54.20 56.73
46.42 46.11 43.73 51.36 53.86 48.92 37.67 28.97 31.01 34.63 34.85 34.36 28.02 31.36 27.38 29.34 28.82 29.76 26.91 29.66 28.59 32.18 33.17 32.67 29.65 43.20 43.35 44.49 44.23 43.44 44.27 38.53 40.87 33.01 31.89 37.84 39.09 40.22 44.07 46.11 48.42 48.90 49.69 51.27 53.17
46.21 41.20 45.20 51.30 51.36 41.25 31.74 30.66 32.53 36.20 36.09 31.96 30.01 29.68 30.01 28.66 29.66 27.33 26.92 29.00 29.61 30.15 33.30 31.50 31.31 36.95 43.12 40.33 39.95 40.52 39.56 41.53 41.71 40.07 34.91 34.15 38.09 46.91 46.01 47.09 46.98 47.71 49.01 50.01 51.27
43.89 36.15 45.25 48.68 36.43 37.01 31.91 32.40 33.77 33.93 36.09 34.26 34.03 32.02 30.09 31.00 29.02 27.98 26.18 29.36 32.43 31.52 26.53 30.46 27.08 27.00 35.84 42.62 44.19 43.26 41.58 41.87 37.74 36.62 39.38 39.17 36.45 48.89 47.77 47.42 47.03 46.63 47.89 49.33 50.56
39.19 39.52 45.81 45.26 30.75 32.78 34.27 32.85 33.29 32.16 32.96 32.14 31.06 32.80 33.39 30.59 26.35 30.10 30.20 33.23 33.85 31.08 26.53 27.53 27.13 24.37 32.72 38.76 41.46 39.75 41.52 41.12 42.17 41.85 38.09 36.29 38.53 47.17 46.21 45.95 46.56 45.99 46.55 47.55 49.12
40.24 32.85 38.13 39.43 38.18 33.37 30.93 30.21 29.95 34.08 32.51 33.62 31.90 33.24 30.92 29.43 32.17 28.74 29.15 32.59 34.25 32.83 31.36 30.53 26.42 24.23 19.70 23.01 28.81 30.98 36.72 38.19 37.89 36.66 37.75 39.04 39.97 42.54 43.41 43.07 44.31 45.05 46.10 46.57 47.15
38.80 33.80 34.76 31.99 33.32 33.37 32.76 31.21 28.85 27.93 32.73 34.28 30.60 30.37 28.69 25.86 27.75 28.03 30.42 30.87 33.28 32.38 32.86 30.36 21.45 25.02 25.15 26.23 27.35 28.35 30.90 33.53 33.87 38.15 37.31 40.32 40.99 43.11 43.93 43.03 43.25 43.78 44.12 44.20 44.91
35.70 33.44 35.89 35.29 34.57 33.33 31.60 29.67 28.30 29.43 30.31 28.58 28.08 29.87 30.55 27.38 28.34 25.76 28.23 29.12 27.87 32.09 30.67 32.18 22.92 25.50 22.82 26.57 26.79 24.56 29.27 31.54 33.10 35.23 37.76 39.37 38.28 45.65 43.93 43.01 41.86 41.71 41.86 41.31 41.78
39.73 39.28 36.13 32.67 32.83 31.37 30.50 29.81 29.42 31.45 31.65 32.82 31.34 29.76 28.77 30.30 32.57 33.18 33.62 33.23 32.21 29.64 28.81 28.60 26.05 23.46 19.72 26.19 25.29 20.88 27.29 30.40 32.63 35.49 36.05 35.17 39.70 41.81 40.45 40.59 40.91 40.99 41.21 40.60 41.14
MSLP
1021.38 1020.77 1020.16 1019.52 1018.89 1018.31 1017.77 1017.19 1016.61 1016.08 1015.55 1015.08 1014.64 1014.27 1013.82 1013.34 1012.66 1011.10 1008.92 1006.58 1006.76 1007.21 1007.84 1006.25 1006.58 1005.98 1005.50 1004.45 1003.66 1002.88 1001.28 999.31 998.26 997.30 997.26 997.40 998.48 999.00 999.02 999.26 1000.59 1001.47 1001.62 1002.83 1004.63
1021.65 1020.99 1020.29 1019.60 1018.97 1018.30 1017.62 1016.98 1016.38 1015.83 1015.32 1014.86 1014.44 1014.06 1013.62 1013.19 1011.80 1008.54 1006.07 1006.20 1006.62 1007.14 1006.97 1005.40 1004.92 1004.80 1004.21 1003.53 1002.82 1001.97 1000.65 999.01 998.21 997.20 997.20 997.27 998.24 998.87 999.87 999.65 1000.89 1001.69 1002.91 1003.89 1004.77
1021.81 1021.09 1020.33 1019.54 1018.73 1017.98 1017.28 1016.64 1016.07 1015.52 1015.07 1014.60 1014.23 1013.86 1013.44 1012.99 1009.96 1004.87 1004.85 1005.39 1006.27 1006.92 1005.68 1004.56 1004.00 1003.73 1003.16 1002.52 1001.86 1001.32 1000.04 999.11 998.29 997.46 997.91 997.68 998.36 999.14 999.73 999.44 1000.42 1001.80 1003.05 1004.37 1005.04
1021.87 1021.07 1020.21 1019.35 1018.58 1017.80 1017.02 1016.27 1015.64 1015.09 1014.62 1014.24 1013.94 1013.66 1013.29 1012.26 1007.56 1004.62 1005.43 1005.73 1006.14 1006.30 1005.56 1004.05 1003.40 1002.66 1002.16 1001.37 1001.08 1000.48 1000.04 999.57 998.17 997.79 998.45 998.37 998.00 998.67 999.57 999.42 999.90 1001.45 1002.72 1004.38 1004.87
1021.84 1020.91 1020.03 1019.07 1018.22 1017.44 1016.68 1015.82 1015.23 1014.67 1014.10 1013.69 1013.51 1013.42 1012.94 1010.00 1006.17 1005.11 1005.54 1005.91 1006.07 1006.02 1004.43 1003.30 1002.57 1001.99 1001.17 1000.78 1000.39 999.96 999.66 999.26 998.80 998.06 998.32 998.77 998.22 998.44 999.25 999.99 1000.38 1000.85 1002.30 1003.87 1004.66
1021.70 1020.84 1019.98 1018.96 1017.97 1017.01 1016.15 1015.35 1014.74 1014.06 1013.44 1013.00 1012.88 1013.00 1011.81 1008.00 1004.61 1004.31 1004.70 1005.40 1004.47 1004.71 1003.64 1002.76 1001.88 1001.57 1000.89 1000.36 999.79 999.62 999.39 999.14 998.55 998.33 998.06 998.74 998.34 998.44 998.76 999.80 1000.31 1000.93 1002.44 1003.44 1004.13
1021.53 1020.64 1019.75 1018.74 1017.73 1016.76 1015.72 1014.79 1014.09 1013.45 1012.85 1012.44 1012.26 1012.25 1010.00 1006.06 1004.51 1004.48 1004.60 1004.15 1003.77 1003.34 1002.52 1002.04 1001.70 1001.27 1001.02 1000.47 1000.03 999.75 999.22 998.97 998.40 998.12 998.06 998.70 998.23 997.65 998.19 998.92 999.89 1000.63 1002.23 1003.29 1003.92
1021.34 1020.38 1019.48 1018.44 1017.29 1016.21 1015.15 1014.12 1013.69 1013.09 1012.74 1012.26 1012.07 1011.11 1007.68 1005.00 1005.05 1004.46 1004.30 1003.97 1003.41 1002.89 1002.51 1002.00 1002.02 1001.66 1000.91 1000.44 1000.22 999.71 999.49 998.10 997.58 997.85 998.11 998.21 996.99 997.33 997.50 998.17 999.23 1000.10 1001.60 1002.64 1003.70
1021.26 1020.18 1019.19 1018.22 1017.29 1016.14 1014.68 1013.20 1013.07 1012.95 1012.57 1012.40 1011.38 1010.58 1006.28 1005.45 1004.73 1004.08 1004.26 1003.30 1003.09 1002.91 1002.60 1002.29 1002.15 1001.77 1001.32 1000.37 999.76 998.97 997.49 997.20 996.82 996.91 997.60 997.52 996.75 996.35 996.61 997.03 998.01 999.17 1000.44 1001.91 1003.19
1021.27 1020.20 1019.14 1018.10 1017.22 1015.97 1014.51 1012.46 1012.26 1012.62 1012.12 1011.00 1010.36 1009.63 1006.16 1004.53 1004.30 1004.12 1003.27 1003.20 1002.37 1002.61 1002.48 1002.25 1001.66 1001.00 1000.13 999.41 997.20 996.76 996.93 995.97 995.63 995.74 996.61 996.65 996.56 996.42 995.70 995.59 997.06 998.13 999.73 1000.64 1001.97
1021.34 1020.24 1019.07 1017.90 1017.10 1015.88 1013.94 1011.36 1012.17 1010.83 1011.30 1010.45 1009.07 1007.79 1006.45 1005.35 1004.46 1003.82 1002.98 1002.42 1002.18 1001.82 1000.95 1001.03 1000.57 998.48 998.06 997.96 997.47 996.04 995.64 995.47 994.87 995.12 995.99 996.32 996.01 995.86 995.59 995.19 996.04 997.18 998.65 999.98 1000.82
1021.30 1020.16 1018.99 1017.62 1016.95 1016.10 1014.60 1014.01 1015.02 1015.17 1011.88 1009.60 1008.41 1007.31 1006.21 1005.60 1004.52 1003.83 1002.85 1001.92 1001.32 999.96 1000.51 1000.04 997.87 997.68 998.13 997.65 997.24 996.32 995.42 994.83 994.90 995.17 996.38 996.01 995.72 995.37 995.16 994.84 995.46 996.18 997.29 999.45 1000.39
1021.23 1020.11 1018.88 1017.57 1016.60 1015.52 1014.41 1015.13 1015.16 1014.95 1013.02 1008.50 1007.53 1006.91 1005.78 1005.04 1003.84 1002.81 1002.20 1001.06 1000.36 999.84 998.82 997.62 996.66 997.73 997.16 996.83 996.39 996.11 995.72 995.36 995.14 995.64 996.79 996.61 995.34 994.76 994.60 994.73 994.81 995.65 996.21 997.99 999.91
1021.24 1020.02 1018.96 1017.41 1016.31 1015.62 1014.55 1015.49 1015.42 1015.53 1012.31 1008.40 1007.12 1006.87 1006.19 1004.88 1002.83 1001.52 1001.57 1000.67 1000.05 998.86 998.37 997.27 996.85 996.53 996.50 996.01 996.04 995.79 996.11 995.91 995.64 995.94 995.71 996.54 994.71 994.09 994.18 994.03 994.06 995.12 995.82 996.60 998.54
1021.31 1020.15 1018.96 1018.25 1017.09 1015.65 1016.09 1015.76 1015.52 1015.59 1012.17 1010.04 1008.35 1007.88 1007.89 1005.34 1003.30 1001.20 1000.16 1000.28 999.33 998.55 998.39 996.24 996.28 995.86 995.80 995.35 996.09 995.85 996.14 996.64 996.72 996.25 996.34 994.93 994.97 993.24 993.43 993.59 993.65 995.00 996.22 996.70 997.50
1021.35 1020.40 1019.42 1017.63 1016.69 1016.41 1016.16 1015.83 1015.53 1014.45 1012.07 1010.35 1009.86 1009.30 1009.69 1007.99 1005.15 1002.58 1001.04 1001.07 999.98 999.20 998.29 997.07 996.09 995.98 995.97 995.96 996.50 996.88 996.43 996.94 997.22 996.77 995.93 994.91 994.63 993.35 992.23 992.90 993.88 994.50 995.46 996.76 997.34
1021.25 1020.46 1019.50 1017.98 1017.78 1016.70 1016.13 1014.75 1014.29 1014.65 1013.88 1012.54 1011.28 1010.97 1011.53 1010.88 1008.12 1004.86 1002.88 1003.36 1003.61 1001.99 999.67 997.99 996.33 996.35 996.19 996.21 996.41 996.36 996.40 996.44 996.26 995.60 994.15 994.62 994.59 993.92 994.41 994.49 994.90 995.14 995.08 996.24 997.61
1021.03 1020.36 1018.80 1018.33 1017.89 1016.73 1015.60 1013.68 1015.12 1015.69 1015.12 1014.47 1013.07 1011.73 1012.36 1012.74 1011.29 1009.51 1007.00 1006.88 1007.99 1007.09 1003.72 999.76 997.63 996.47 996.28 995.66 995.21 995.52 995.73 994.64 994.26 994.11 993.77 994.20 993.80 993.93 996.02 996.83 997.10 997.84 998.19 998.06 998.11
1020.80 1019.19 1018.72 1018.50 1017.63 1016.46 1014.87 1015.63 1016.86 1016.85 1016.29 1014.92 1013.31 1013.04 1013.07 1013.80 1013.69 1012.73 1012.52 1012.45 1012.08 1011.66 1009.87 1004.47 998.82 996.95 996.56 996.46 995.53 995.32 995.25 994.50 994.16 993.91 993.64 993.25 995.06 996.56 997.42 998.03 998.52 999.61 1000.41 1000.85 1000.75
1020.99 1019.04 1019.55 1019.26 1017.56 1016.20 1016.25 1017.00 1017.72 1017.85 1016.94 1015.88 1014.89 1014.28 1013.97 1014.22 1014.65 1014.57 1015.15 1015.82 1015.23 1014.47 1013.54 1009.36 1004.87 998.55 997.13 996.92 996.04 995.13 995.68 995.41 994.28 993.77 993.04 992.57 993.63 994.86 997.69 998.77 999.82 1000.95 1001.76 1002.26 1002.38
1020.49 1019.05 1020.77 1019.40 1017.71 1017.23 1017.79 1018.22 1018.55 1018.33 1017.69 1017.01 1016.34 1015.44 1015.26 1015.11 1015.32 1015.91 1016.39 1016.94 1016.93 1016.05 1014.75 1012.61 1009.39 1003.08 999.45 998.36 996.86 996.24 996.10 995.65 994.93 994.56 993.47 993.03 992.82 993.65 997.35 999.37 1000.82 1002.18 1002.97 1003.37 1003.55
1021.05 1020.65 1021.55 1019.86 1019.07 1019.18 1019.35 1019.48 1019.84 1019.01 1018.56 1017.91 1017.53 1016.85 1016.38 1015.72 1015.53 1016.04 1016.49 1016.86 1017.22 1017.47 1016.62 1015.67 1013.15 1008.27 1004.38 1000.75 999.73 998.39 997.06 996.43 995.37 994.59 994.65 993.95 996.34 996.43 998.44 1000.65 1002.32 1003.60 1004.20 1004.62 1004.83
1022.27 1021.73 1021.68 1020.47 1020.57 1020.63 1019.93 1019.95 1019.90 1019.70 1019.22 1018.84 1018.25 1018.01 1017.58 1016.49 1016.22 1015.94 1016.36 1016.84 1016.91 1016.91 1017.60 1017.45 1014.92 1010.92 1005.96 1004.07 1002.37 1000.97 999.58 998.86 997.46 996.34 995.30 995.37 997.02 999.42 1000.87 1001.98 1003.21 1004.42 1005.23 1005.66 1005.83
1023.40 1023.15 1022.67 1022.23 1021.78 1021.35 1020.87 1020.68 1020.30 1020.40 1020.07 1019.60 1019.02 1018.81 1018.27 1017.41 1016.66 1016.31 1016.49 1016.70 1016.64 1016.77 1017.34 1017.31 1016.42 1014.77 1012.75 1011.44 1009.98 1006.00 1003.43 1002.23 1000.71 998.16 996.81 996.24 998.06 1000.20 1001.87 1003.20 1004.12 1005.14 1005.92 1006.45 1006.70
1025.03 1024.63 1024.67 1023.18 1022.91 1022.25 1022.19 1021.63 1021.02 1020.98 1020.87 1020.00 1019.69 1019.49 1019.11 1018.10 1017.34 1016.52 1016.79 1016.77 1016.45 1016.70 1016.43 1016.73 1016.21 1015.59 1014.74 1013.77 1012.18 1010.31 1007.58 1005.27 1003.10 1000.85 999.15 997.94 998.19 1000.05 1001.96 1003.69 1004.93 1005.86 1006.65 1007.18 1007.54
1026.50 1026.52 1025.72 1023.84 1023.43 1022.58 1022.14 1022.06 1021.79 1021.63 1021.46 1020.86 1020.51 1020.13 1019.61 1018.77 1018.33 1018.05 1017.98 1017.45 1016.98 1016.18 1016.27 1016.14 1015.55 1014.97 1014.15 1013.82 1012.97 1011.56 1009.68 1007.64 1005.50 1003.50 1001.76 1000.90 1000.66 1000.75 1003.44 1004.92 1005.83 1006.58 1007.27 1007.88 1008.39
1027.85 1027.58 1026.56 1025.20 1023.73 1023.07 1022.83 1022.74 1022.34 1021.99 1021.54 1021.28 1020.97 1020.50 1019.68 1019.28 1019.44 1019.15 1018.61 1017.84 1017.11 1016.50 1016.05 1015.83 1015.32 1014.82 1013.53 1013.09 1012.82 1011.53 1009.82 1008.46 1007.20 1005.48 1004.41 1003.41 1003.52 1004.61 1005.05 1005.75 1006.55 1007.55 1008.19 1008.64 1009.02
Wind_Speed
26 26 26 26 26 25 24 24 23 21 20 19 18 19 19 19 21 19 19 14 10 11 5 12 20 20 19 20 22 21 17 19 23 19 15 11 10 9 8 10 8 6 7 22 24
26 26 26 26 25 25 25 24 23 22 21 19 17 16 18 18 22 24 18 12 11 11 15 18 19 20 18 22 20 19 17 25 22 17 8 7 14 13 7 10 10 8 9 21 24
27 27 27 27 26 26 26 25 24 22 21 19 17 15 15 17 15 8 13 16 15 13 21 18 17 19 21 18 24 23 23 22 24 19 7 13 11 6 11 14 14 13 17 21 23
28 28 28 28 27 26 26 25 24 22 21 19 17 15 12 10 8 10 5 9 14 17 21 21 21 21 21 24 22 26 24 25 25 18 11 18 11 15 9 6 6 14 20 21 23
28 29 30 30 29 27 26 25 23 23 22 20 16 12 10 11 20 5 11 8 13 19 24 24 24 22 24 22 22 23 24 24 22 24 18 18 18 11 14 12 7 8 21 22 22
28 29 29 30 30 29 27 24 23 23 22 19 13 8 12 19 9 8 7 11 14 21 21 23 19 22 20 24 20 21 21 21 23 24 17 17 21 16 14 12 10 12 17 20 22
29 29 30 30 29 28 27 25 23 22 15 12 8 11 16 24 9 7 8 15 16 19 20 20 19 17 19 14 22 18 18 17 26 20 24 18 22 24 16 16 15 14 17 19 20
31 30 29 29 29 28 26 24 20 12 9 6 8 10 11 6 10 17 16 14 19 18 20 15 15 16 20 15 8 22 20 21 22 24 18 23 24 24 19 18 17 16 16 18 21
31 31 31 29 27 27 27 27 16 4 2 4 9 9 12 3 10 12 17 20 17 17 18 12 14 19 20 19 15 17 18 26 23 26 22 25 22 22 24 23 18 17 18 19 20
31 31 31 29 26 25 24 29 5 5 11 8 8 9 11 8 12 16 14 20 18 20 20 18 14 18 19 19 21 23 23 20 23 21 24 25 24 22 22 25 18 19 16 20 22
31 31 31 29 25 26 20 10 10 5 19 13 23 26 30 28 25 17 16 17 24 22 27 25 21 25 30 27 25 21 21 23 18 14 23 22 24 23 24 22 21 19 19 16 22
31 31 30 28 26 22 13 15 14 10 15 21 22 18 17 14 21 21 23 16 25 28 27 22 30 30 26 26 27 27 17 18 16 14 10 16 22 25 24 24 20 21 21 19 18
31 31 30 27 24 13 8 18 12 10 9 14 10 11 13 12 16 24 25 21 23 28 30 31 27 26 26 28 27 26 21 20 18 13 12 15 20 23 26 25 23 22 20 23 22
32 30 23 26 7 13 11 18 12 5 8 14 18 12 25 38 13 14 24 21 26 31 31 31 28 23 28 27 24 25 21 19 15 12 15 20 14 19 21 23 25 20 16 20 24
32 27 21 15 10 11 16 14 9 2 6 18 20 20 28 24 18 12 9 20 23 26 20 29 30 25 26 26 23 21 20 19 18 16 16 18 15 15 25 25 22 23 19 18 21
31 23 21 6 9 15 16 13 2 5 5 17 24 24 24 23 20 16 6 9 11 24 22 28 21 23 21 20 21 20 18 14 18 14 16 24 16 14 18 24 23 22 22 16 16
31 20 15 9 13 19 13 8 3 7 19 21 29 18 19 22 21 23 6 18 17 9 21 23 30 18 15 21 25 23 18 12 14 15 15 22 19 10 10 7 3 4 17 21 17
31 21 13 9 15 14 11 5 8 16 18 21 20 14 17 20 14 26 14 13 21 25 13 14 20 21 21 27 22 26 23 15 21 18 17 17 20 10 12 8 11 10 11 9 8
30 6 14 15 19 12 6 9 8 13 18 20 19 15 14 19 9 12 16 18 16 21 12 11 16 24 18 22 25 21 25 28 19 19 17 18 8 9 11 12 13 13 10 6 5
10 6 16 21 20 8 7 9 9 13 16 16 16 13 16 19 15 13 16 17 17 20 16 11 12 17 19 10 21 23 22 22 19 18 20 20 22 10 16 15 14 13 11 9 7
6 4 15 21 10 9 9 8 8 14 16 12 15 14 16 17 13 11 12 7 17 19 15 15 8 13 11 16 18 17 13 22 22 15 15 17 18 19 21 17 15 13 11 10 10
7 4 12 13 11 7 8 9 5 14 15 13 13 12 15 14 8 9 11 11 11 11 11 10 7 8 13 6 14 15 19 23 16 21 18 14 8 17 21 16 15 13 12 11 11
6 4 7 9 7 6 7 10 6 12 12 13 12 12 17 12 7 10 12 9 14 9 9 9 5 8 11 8 7 9 5 15 15 20 20 18 11 15 14 16 16 15 13 12 12
5 5 5 8 8 11 11 9 11 7 10 11 7 15 15 15 11 10 12 13 14 8 3 2 5 7 7 12 15 15 12 11 11 12 15 18 24 19 17 16 15 14 13 13 13
7 4 5 4 6 11 10 10 12 14 10 8 9 16 18 16 13 8 15 17 18 9 5 7 7 9 9 16 12 17 17 14 13 16 17 20 20 22 18 14 13 13 13 13 13
3 5 9 8 9 10 6 9 12 13 14 11 13 18 18 16 15 17 19 16 10 11 16 9 8 11 15 11 11 15 17 16 15 13 11 13 12 20 16 13 11 11 12 12 12
6 4 6 10 7 8 8 13 15 14 6 13 17 17 17 15 16 18 18 18 18 20 17 15 7 9 10 1 9 14 14 15 13 9 8 7 14 12 12 11 11 10 10 11 11
Wind_Direction
357 354 350 347 343 339 335 332 330 326 322 319 318 318 316 314 302 265 251 246 195 164 201 216 205 218 229 231 230 228 248 243 244 243 242 142 224 164 277 117 160 187 4 130 149
355 351 348 344 340 336 333 330 327 323 318 315 313 315 316 316 300 277 250 160 139 151 204 207 203 206 216 224 225 233 234 241 247 247 235 221 218 137 213 185 180 148 107 140 155
352 349 346 342 339 336 332 328 324 320 315 311 308 308 311 310 289 263 17 162 162 193 223 217 220 209 220 221 222 217 241 239 246 259 255 258 219 154 211 207 182 181 146 158 165
350 348 345 342 338 335 330 325 322 318 312 307 303 300 305 291 265 61 50 184 177 210 223 225 223 215 223 226 224 228 234 248 262 238 224 259 210 201 222 229 204 183 156 165 177
349 347 344 341 337 334 328 322 319 315 307 299 293 288 270 236 250 247 118 147 188 207 216 216 215 220 223 230 232 229 238 245 247 261 194 241 242 224 201 245 157 204 150 174 185
348 346 343 340 336 332 327 320 318 313 308 298 278 249 243 254 272 300 262 183 191 202 213 217 217 221 233 239 235 230 236 249 247 241 240 233 241 231 224 179 206 162 170 181 189
349 346 344 340 336 330 324 319 318 316 310 301 246 218 250 246 319 316 245 233 224 212 217 216 223 233 231 250 246 247 233 243 244 231 237 221 240 233 214 203 200 185 181 186 191
349 346 343 340 336 331 321 313 319 325 328 314 200 215 258 266 276 252 252 243 238 222 238 220 236 250 234 235 248 226 240 241 226 229 222 226 232 224 203 210 195 194 187 188 188
348 345 343 340 336 330 318 309 310 300 339 171 201 245 272 123 237 247 247 235 225 227 230 240 220 229 226 235 225 208 227 224 241 205 216 221 232 234 215 213 200 196 189 187 184
346 345 340 336 336 325 309 291 172 220 215 220 259 264 249 323 343 302 279 223 233 214 212 211 212 221 225 213 218 212 218 236 216 217 205 224 228 238 239 217 195 198 201 185 185
345 343 338 333 334 322 317 345 2 239 352 279 295 288 295 298 281 299 242 217 223 211 211 203 211 215 213 217 230 234 218 224 235 210 196 224 235 218 234 227 199 209 182 205 188
344 342 338 328 327 321 315 29 9 305 301 288 272 269 279 284 273 263 269 213 209 214 206 200 221 218 219 220 228 241 248 225 234 185 217 225 230 236 219 237 209 206 180 190 196
344 342 335 320 320 318 351 16 349 333 273 317 11 318 324 298 296 262 260 214 215 219 209 218 216 218 223 228 222 228 223 233 231 189 210 246 242 221 229 220 214 224 197 180 190
345 342 333 319 298 331 27 349 344 331 275 12 22 11 331 311 267 259 249 235 230 220 227 222 225 207 221 224 217 224 215 237 226 215 218 205 238 209 225 222 215 204 225 190 179
347 343 328 323 321 342 337 333 332 257 323 338 356 356 340 328 343 22 240 237 234 228 222 227 224 208 219 218 221 230 210 220 234 234 241 220 225 250 198 218 202 199 202 226 184
345 341 323 8 327 345 328 316 273 255 351 335 349 6 5 347 334 324 232 248 272 245 243 242 220 239 220 225 223 220 237 200 232 230 230 235 212 235 227 199 213 212 192 194 204
340 334 318 344 335 320 316 270 296 33 345 350 344 13 19 346 341 349 83 59 24 294 243 223 234 211 213 220 214 213 213 197 203 211 226 214 230 227 53 70 51 311 210 174 194
332 317 8 359 334 326 300 281 40 358 357 342 334 5 29 7 357 348 14 31 31 4 322 235 217 198 220 226 204 204 205 211 203 211 211 237 207 188 117 109 99 63 42 39 188
317 327 13 346 333 321 307 48 31 349 336 339 343 358 10 18 358 358 7 17 17 9 351 339 254 188 205 222 223 194 216 223 234 233 217 189 133 98 140 128 115 106 101 89 61
314 304 12 336 323 301 57 59 39 4 335 339 4 9 2 12 9 11 5 31 356 357 334 331 298 289 180 225 229 228 210 220 235 236 219 206 186 172 168 145 129 126 116 107 93
293 358 1 332 297 34 45 55 357 7 348 6 357 344 350 1 25 13 22 43 6 347 351 350 296 317 285 200 217 216 229 232 242 226 230 233 198 147 152 143 131 118 110 103 90
337 29 359 321 48 12 34 17 332 355 1 1 7 353 345 357 349 18 6 18 19 13 357 7 310 282 297 360 311 298 225 236 231 214 244 250 82 101 118 124 122 117 109 100 96
350 351 41 1 32 11 20 15 19 3 11 354 6 353 345 345 342 20 2 27 357 6 14 351 347 302 249 237 238 270 279 325 299 241 229 232 137 126 124 129 127 124 114 101 95
356 352 345 26 3 358 355 359 2 28 347 351 340 357 349 334 353 305 347 345 334 45 336 30 309 319 319 329 320 307 334 333 308 256 229 247 130 151 148 138 128 117 106 100 93
7 337 6 348 355 339 12 352 351 2 351 348 335 355 340 326 327 328 340 333 332 139 326 351 277 282 297 303 293 303 303 299 288 261 246 240 165 159 149 131 116 112 108 98 88
36 350 340 298 316 324 17 341 340 347 332 330 327 334 322 316 333 329 328 318 311 316 320 321 284 297 283 259 279 288 285 280 284 297 297 294 43 114 104 123 120 109 104 94 83
355 337 296 297 327 328 351 326 320 318 305 321 321 316 314 339 328 310 296 283 276 282 290 289 278 303 288 252 282 279 253 248 260 282 301 285 149 140 140 130 120 107 93 85 77